| time (UTC) | temp C | wind direction | speed KPH | gust KPH | rain 1hr cm | rain 24hr cm | rain mn cm | humidity % | barometer mb |
| 20260906082223 | 21 | 119 | 0.0 | 3.2 | 0.00 | 0.91 | 0.00 | 93 | 1011.5 |
| 20260906081220 | 21 | 110 | 1.6 | 4.8 | 0.00 | 0.91 | 0.00 | 93 | 1011.4 |
| 20260906080216 | 21 | 67 | 0.0 | 0.0 | 0.00 | 0.91 | 0.00 | 93 | 1011.2 |
| 20260906075226 | 22 | 17 | 0.0 | 0.0 | 0.00 | 0.91 | 0.00 | 93 | 1011.1 |
| 20260906074242 | 22 | 17 | 0.0 | 0.0 | 0.00 | 0.91 | 0.00 | 93 | 1011.0 |
| 20260906073218 | 22 | 17 | 0.0 | 0.0 | 0.00 | 0.91 | 0.00 | 93 | 1011.0 |
| 20260906072234 | 22 | 17 | 0.0 | 0.0 | 0.00 | 0.91 | 0.00 | 93 | 1011.2 |
| 20260906071251 | 22 | 17 | 0.0 | 0.0 | 0.00 | 0.91 | 0.00 | 93 | 1011.3 |
| 20260906070226 | 22 | 17 | 0.0 | 0.0 | 0.00 | 0.91 | 0.00 | 93 | 1011.3 |
| 20260906065236 | 22 | 17 | 0.0 | 0.0 | 0.00 | 0.91 | 0.00 | 93 | 1011.3 |
| 20260906064233 | 22 | 17 | 0.0 | 0.0 | 0.00 | 0.91 | 0.00 | 93 | 1011.4 |
| 20260906063220 | 22 | 17 | 0.0 | 0.0 | 0.00 | 0.91 | 0.00 | 93 | 1011.4 |
| 20260906062217 | 22 | 17 | 0.0 | 0.0 | 0.00 | 0.91 | 0.00 | 93 | 1011.5 |
| 20260906061213 | 22 | 32 | 0.0 | 0.0 | 0.00 | 0.91 | 0.00 | 93 | 1011.6 |
| 20260906060229 | 22 | 32 | 0.0 | 0.0 | 0.00 | 0.91 | 0.00 | 93 | 1011.6 |
| 20260906055239 | 22 | 32 | 0.0 | 0.0 | 0.00 | 0.91 | 0.00 | 93 | 1011.9 |
| 20260906054215 | 22 | 32 | 0.0 | 0.0 | 0.00 | 0.91 | 0.00 | 93 | 1011.9 |
| 20260906053232 | 22 | 32 | 0.0 | 0.0 | 0.00 | 0.91 | 0.00 | 93 | 1012.2 |
| 20260906052219 | 22 | 32 | 0.0 | 0.0 | 0.00 | 0.91 | 0.00 | 93 | 1012.2 |
| 20260906051215 | 22 | 32 | 0.0 | 0.0 | 0.00 | 0.91 | 0.00 | 93 | 1012.2 |
| 20260906050232 | 22 | 32 | 0.0 | 0.0 | 0.00 | 0.91 | 0.00 | 93 | 1012.3 |
| 20260906045221 | 22 | 32 | 0.0 | 0.0 | 0.00 | 0.91 | 0.00 | 93 | 1012.3 |
| 20260906044238 | 22 | 32 | 0.0 | 0.0 | 0.00 | 0.91 | 0.00 | 93 | 1012.5 |
| 20260906043214 | 22 | 32 | 0.0 | 0.0 | 0.00 | 0.91 | 0.00 | 93 | 1012.6 |
| 20260906042230 | 22 | 32 | 0.0 | 0.0 | 0.00 | 0.91 | 0.00 | 93 | 1012.6 |
| 20260906041247 | 22 | 32 | 0.0 | 0.0 | 0.00 | 0.91 | 0.00 | 93 | 1012.6 |
| 20260906040222 | 22 | 32 | 0.0 | 0.0 | 0.00 | 0.91 | 0.91 | 93 | 1012.6 |
| 20260906035248 | 22 | 32 | 0.0 | 0.0 | 0.00 | 0.91 | 0.91 | 93 | 1012.7 |
| 20260906034223 | 22 | 32 | 0.0 | 0.0 | 0.00 | 0.91 | 0.91 | 92 | 1012.7 |
| 20260906033220 | 23 | 32 | 0.0 | 0.0 | 0.00 | 0.91 | 0.91 | 93 | 1012.7 |
| 20260906032215 | 23 | 32 | 0.0 | 0.0 | 0.00 | 0.91 | 0.91 | 92 | 1012.7 |
| 20260906031251 | 23 | 32 | 0.0 | 0.0 | 0.00 | 0.91 | 0.91 | 92 | 1012.8 |
| 20260906030224 | 23 | 32 | 0.0 | 0.0 | 0.00 | 0.91 | 0.91 | 92 | 1012.7 |
| 20260906025213 | 23 | 32 | 0.0 | 0.0 | 0.00 | 0.91 | 0.91 | 92 | 1012.7 |
| 20260906024230 | 23 | 32 | 0.0 | 0.0 | 0.00 | 0.91 | 0.91 | 92 | 1012.7 |
| 20260906023226 | 23 | 32 | 0.0 | 0.0 | 0.00 | 0.91 | 0.91 | 92 | 1012.6 |
| 20260906022214 | 23 | 32 | 0.0 | 0.0 | 0.00 | 0.91 | 0.91 | 92 | 1012.7 |
| 20260906021259 | 23 | 32 | 0.0 | 0.0 | 0.00 | 0.91 | 0.91 | 92 | 1012.7 |
| 20260906020235 | 23 | 32 | 0.0 | 0.0 | 0.00 | 0.91 | 0.91 | 92 | 1012.5 |
| 20260906015224 | 23 | 32 | 0.0 | 0.0 | 0.00 | 0.91 | 0.91 | 91 | 1012.3 |
| 20260906014220 | 23 | 32 | 0.0 | 0.0 | 0.00 | 0.91 | 0.91 | 91 | 1012.3 |
| 20260906013236 | 23 | 32 | 0.0 | 0.0 | 0.00 | 0.91 | 0.91 | 91 | 1012.2 |
| 20260906012224 | 23 | 32 | 0.0 | 0.0 | 0.00 | 0.91 | 0.91 | 91 | 1012.1 |
| 20260906011220 | 23 | 32 | 0.0 | 0.0 | 0.00 | 0.91 | 0.91 | 91 | 1011.9 |
| 20260906010217 | 23 | 32 | 0.0 | 0.0 | 0.00 | 0.91 | 0.91 | 91 | 1012.0 |
| 20260906005247 | 24 | 32 | 0.0 | 0.0 | 0.00 | 0.91 | 0.91 | 90 | 1011.9 |
| 20260906004223 | 24 | 32 | 0.0 | 0.0 | 0.00 | 0.91 | 0.91 | 91 | 1011.9 |
| 20260906003240 | 24 | 32 | 0.0 | 0.0 | 0.00 | 0.91 | 0.91 | 91 | 1011.8 |
| 20260906002215 | 24 | 32 | 0.0 | 0.0 | 0.00 | 0.91 | 0.91 | 91 | 1011.7 |
| 20260906001227 | 24 | 32 | 0.0 | 0.0 | 0.00 | 0.91 | 0.91 | 90 | 1011.5 |
| 20260906000226 | 24 | 32 | 0.0 | 1.6 | 0.00 | 0.91 | 0.91 | 90 | 1011.4 |
| 20260905235215 | 25 | 32 | 0.0 | 0.0 | 0.00 | 0.91 | 0.91 | 89 | 1011.4 |
| 20260905234230 | 25 | 32 | 0.0 | 0.0 | 0.00 | 0.91 | 0.91 | 89 | 1011.3 |
| 20260905233217 | 25 | 32 | 0.0 | 0.0 | 0.00 | 0.91 | 0.91 | 89 | 1011.4 |
| 20260905232214 | 25 | 32 | 0.0 | 0.0 | 0.00 | 0.91 | 0.91 | 89 | 1011.3 |
| 20260905231230 | 26 | 32 | 0.0 | 1.6 | 0.00 | 0.91 | 0.91 | 89 | 1011.4 |
| 20260905230227 | 26 | 32 | 0.0 | 3.2 | 0.00 | 0.91 | 0.91 | 88 | 1011.4 |
| 20260905225217 | 26 | 64 | 0.0 | 1.6 | 0.00 | 0.91 | 0.91 | 89 | 1011.3 |
| 20260905224234 | 25 | 47 | 1.6 | 4.8 | 0.00 | 0.91 | 0.91 | 89 | 1011.1 |
| 20260905223229 | 25 | 92 | 1.6 | 3.2 | 0.00 | 0.91 | 0.91 | 89 | 1011.0 |
| 20260905222246 | 25 | 5 | 0.0 | 3.2 | 0.00 | 0.91 | 0.91 | 91 | 1010.9 |
| 20260905221221 | 25 | 5 | 0.0 | 3.2 | 0.00 | 0.91 | 0.91 | 91 | 1010.9 |
| 20260905220238 | 24 | 5 | 1.6 | 3.2 | 0.00 | 0.91 | 0.91 | 92 | 1010.9 |
| 20260905215247 | 24 | 5 | 1.6 | 3.2 | 0.00 | 0.91 | 0.91 | 92 | 1011.3 |
| 20260905214223 | 23 | 5 | 0.0 | 3.2 | 0.00 | 0.91 | 0.91 | 92 | 1011.4 |
| 20260905213238 | 23 | 355 | 1.6 | 3.2 | 0.00 | 0.91 | 0.91 | 92 | 1011.6 |
| 20260905212225 | 23 | 347 | 0.0 | 3.2 | 0.00 | 0.91 | 0.91 | 93 | 1011.5 |
| 20260905211222 | 23 | 11 | 1.6 | 3.2 | 0.00 | 0.91 | 0.91 | 93 | 1011.9 |
| 20260905210218 | 23 | 11 | 1.6 | 4.8 | 0.00 | 0.91 | 0.91 | 93 | 1011.8 |
| 20260905205228 | 22 | 11 | 1.6 | 3.2 | 0.00 | 0.91 | 0.91 | 92 | 1011.8 |
| 20260905204244 | 22 | 11 | 1.6 | 3.2 | 0.00 | 0.91 | 0.91 | 92 | 1011.7 |
| 20260905203220 | 22 | 35 | 1.6 | 3.2 | 0.00 | 0.91 | 0.91 | 93 | 1011.3 |
| 20260905202236 | 22 | 86 | 0.0 | 1.6 | 0.00 | 0.91 | 0.91 | 92 | 1011.4 |
| 20260905201232 | 22 | 86 | 1.6 | 6.4 | 0.00 | 0.91 | 0.91 | 92 | 1011.4 |
| 20260905200244 | 22 | 76 | 1.6 | 6.4 | 0.00 | 0.91 | 0.91 | 92 | 1012.0 |
| 20260905195213 | 22 | 33 | 1.6 | 3.2 | 0.10 | 0.91 | 0.91 | 92 | 1012.4 |
| 20260905194250 | 22 | 50 | 1.6 | 3.2 | 0.46 | 0.91 | 0.91 | 91 | 1012.2 |
| 20260905193225 | 22 | 52 | 1.6 | 3.2 | 0.91 | 0.91 | 0.91 | 90 | 1011.8 |
| 20260905192221 | 22 | 79 | 0.0 | 4.8 | 0.91 | 0.91 | 0.91 | 89 | 1011.8 |
| 20260905191218 | 23 | 113 | 0.0 | 3.2 | 0.91 | 0.91 | 0.91 | 88 | 1011.7 |
| 20260905190234 | 23 | 355 | 0.0 | 1.6 | 0.91 | 0.91 | 0.91 | 87 | 1011.7 |
| 20260905185224 | 23 | 175 | 0.0 | 22.5 | 0.81 | 0.81 | 0.81 | 85 | 1012.5 |
| 20260905184220 | 26 | 51 | 9.7 | 30.6 | 0.43 | 0.43 | 0.43 | 77 | 1013.7 |
| 20260905183237 | 33 | 34 | 8.0 | 16.1 | 0.00 | 0.00 | 0.00 | 59 | 1012.6 |
| 20260905182233 | 33 | 10 | 1.6 | 3.2 | 0.00 | 0.00 | 0.00 | 56 | 1011.5 |
| 20260905181231 | 34 | 16 | 3.2 | 6.4 | 0.00 | 0.00 | 0.00 | 56 | 1011.7 |
| 20260905180246 | 34 | 41 | 4.8 | 8.0 | 0.00 | 0.00 | 0.00 | 54 | 1012.0 |
| 20260905175234 | 34 | 9 | 1.6 | 6.4 | 0.00 | 0.00 | 0.00 | 56 | 1012.2 |
| 20260905174231 | 34 | 28 | 3.2 | 6.4 | 0.00 | 0.00 | 0.00 | 58 | 1012.3 |
| 20260905173218 | 34 | 360 | 3.2 | 8.0 | 0.00 | 0.00 | 0.00 | 58 | 1012.5 |
| 20260905172214 | 34 | 355 | 1.6 | 6.4 | 0.00 | 0.00 | 0.00 | 61 | 1012.8 |
| 20260905171252 | 34 | 300 | 1.6 | 4.8 | 0.00 | 0.00 | 0.00 | 60 | 1012.9 |
| 20260905170227 | 33 | 63 | 1.6 | 6.4 | 0.00 | 0.00 | 0.00 | 61 | 1013.0 |
| 20260905165238 | 34 | 10 | 1.6 | 6.4 | 0.00 | 0.00 | 0.00 | 63 | 1013.0 |
| 20260905164213 | 33 | 104 | 1.6 | 6.4 | 0.00 | 0.00 | 0.00 | 64 | 1013.3 |
| 20260905163245 | 33 | 308 | 3.2 | 6.4 | 0.00 | 0.00 | 0.00 | 58 | 1013.5 |
| 20260905162220 | 33 | 12 | 1.6 | 4.8 | 0.00 | 0.00 | 0.00 | 61 | 1013.5 |
| 20260905161217 | 33 | 13 | 3.2 | 6.4 | 0.00 | 0.00 | 0.00 | 60 | 1013.6 |
| 20260905160233 | 33 | 360 | 3.2 | 4.8 | 0.00 | 0.00 | 0.00 | 64 | 1013.7 |
| 20260905155222 | 32 | 259 | 3.2 | 6.4 | 0.00 | 0.00 | 0.00 | 61 | 1013.8 |
| 20260905154218 | 32 | 12 | 1.6 | 6.4 | 0.00 | 0.00 | 0.00 | 63 | 1013.8 |
| 20260905153215 | 32 | 355 | 1.6 | 3.2 | 0.00 | 0.00 | 0.00 | 67 | 1013.8 |
| 20260905152251 | 31 | 355 | 1.6 | 3.2 | 0.00 | 0.00 | 0.00 | 68 | 1013.8 |
| 20260905151247 | 31 | 355 | 1.6 | 3.2 | 0.00 | 0.00 | 0.00 | 73 | 1013.9 |
| 20260905150251 | 31 | 279 | 1.6 | 4.8 | 0.00 | 0.00 | 0.00 | 77 | 1013.9 |
| 20260905145220 | 30 | 59 | 1.6 | 4.8 | 0.00 | 0.00 | 0.00 | 76 | 1013.9 |
| 20260905144216 | 30 | 355 | 1.6 | 6.4 | 0.00 | 0.00 | 0.00 | 79 | 1014.0 |
| 20260905143213 | 28 | 347 | 0.0 | 3.2 | 0.00 | 0.00 | 0.00 | 81 | 1013.9 |
| 20260905142230 | 28 | 13 | 1.6 | 4.8 | 0.00 | 0.00 | 0.00 | 81 | 1013.9 |
| 20260905141217 | 27 | 23 | 0.0 | 0.0 | 0.00 | 0.00 | 0.00 | 84 | 1014.0 |
| 20260905140214 | 27 | 23 | 0.0 | 0.0 | 0.00 | 0.00 | 0.00 | 86 | 1014.0 |
| 20260905135232 | 26 | 23 | 0.0 | 0.0 | 0.00 | 0.00 | 0.00 | 87 | 1014.0 |
| 20260905134220 | 26 | 26 | 0.0 | 3.2 | 0.00 | 0.00 | 0.00 | 89 | 1014.2 |
| 20260905133216 | 26 | 14 | 0.0 | 0.0 | 0.00 | 0.00 | 0.00 | 90 | 1014.2 |
| 20260905132213 | 25 | 14 | 0.0 | 0.0 | 0.00 | 0.00 | 0.00 | 90 | 1014.1 |
| 20260905131249 | 25 | 22 | 0.0 | 3.2 | 0.00 | 0.00 | 0.00 | 91 | 1014.1 |
| 20260905130225 | 25 | 22 | 0.0 | 3.2 | 0.00 | 0.00 | 0.00 | 91 | 1014.2 |
| 20260905125235 | 24 | 22 | 0.0 | 1.6 | 0.00 | 0.00 | 0.00 | 92 | 1014.3 |
| 20260905124226 | 23 | 51 | 0.0 | 0.0 | 0.00 | 0.00 | 0.00 | 92 | 1014.4 |
| 20260905123223 | 23 | 76 | 0.0 | 0.0 | 0.00 | 0.00 | 0.00 | 92 | 1014.3 |
| 20260905122219 | 23 | 76 | 0.0 | 0.0 | 0.00 | 0.00 | 0.00 | 92 | 1014.2 |
| 20260905114223 | 23 | 76 | 0.0 | 0.0 | 0.00 | 0.00 | 0.00 | 92 | 1014.1 |
| 20260905113239 | 22 | 76 | 0.0 | 0.0 | 0.00 | 0.00 | 0.00 | 92 | 1013.9 |
| 20260905112215 | 22 | 76 | 0.0 | 0.0 | 0.00 | 0.00 | 0.00 | 92 | 1013.6 |
| 20260905111231 | 23 | 76 | 0.0 | 0.0 | 0.00 | 0.00 | 0.00 | 92 | 1013.5 |
| 20260905110248 | 23 | 76 | 0.0 | 0.0 | 0.00 | 0.00 | 0.00 | 91 | 1013.3 |
| 20260905105216 | 23 | 76 | 0.0 | 0.0 | 0.00 | 0.00 | 0.00 | 91 | 1013.1 |
| 20260905104220 | 23 | 76 | 0.0 | 0.0 | 0.00 | 0.00 | 0.00 | 91 | 1013.1 |
| 20260905103217 | 23 | 76 | 0.0 | 0.0 | 0.00 | 0.00 | 0.00 | 91 | 1013.0 |
| 20260905102233 | 23 | 76 | 0.0 | 0.0 | 0.00 | 0.00 | 0.00 | 91 | 1013.0 |
| 20260905101221 | 23 | 76 | 0.0 | 0.0 | 0.00 | 0.00 | 0.00 | 91 | 1013.0 |
| 20260905100217 | 23 | 76 | 0.0 | 0.0 | 0.00 | 0.00 | 0.00 | 91 | 1012.9 |
| 20260905095223 | 23 | 76 | 0.0 | 0.0 | 0.00 | 0.00 | 0.00 | 91 | 1012.8 |
| 20260905094220 | 23 | 76 | 0.0 | 0.0 | 0.00 | 0.00 | 0.00 | 90 | 1012.9 |
| 20260905093216 | 23 | 76 | 0.0 | 0.0 | 0.00 | 0.00 | 0.00 | 90 | 1013.0 |
| 20260905092231 | 23 | 76 | 0.0 | 0.0 | 0.00 | 0.00 | 0.00 | 90 | 1013.0 |
| 20260905091228 | 23 | 76 | 0.0 | 0.0 | 0.00 | 0.00 | 0.00 | 90 | 1013.1 |
| 20260905090225 | 23 | 76 | 0.0 | 0.0 | 0.00 | 0.00 | 0.00 | 90 | 1013.1 |
| 20260905085253 | 23 | 76 | 0.0 | 0.0 | 0.00 | 0.00 | 0.00 | 90 | 1013.0 |
| 20260905084229 | 23 | 76 | 0.0 | 0.0 | 0.00 | 0.00 | 0.00 | 90 | 1013.1 |